2015-05-17 00:04:01 r, 15.43m,0000000059Hz,0000007756c,0000000.017s, 028.3C,00002195
2015-05-17 00:14:01 r, 15.42m,0000000060Hz,0000007627c,0000000.017s, 028.0C,00002195
2015-05-17 00:24:01 r, 15.48m,0000000056Hz,0000008108c,0000000.018s, 028.0C,00002195
2015-05-17 00:34:01 r, 15.41m,0000000060Hz,0000007599c,0000000.016s, 027.7C,00002195
2015-05-17 00:44:01 r, 15.44m,0000000058Hz,0000007831c,0000000.017s, 027.7C,00002195
2015-05-17 00:54:01 r, 15.40m,0000000061Hz,0000007503c,0000000.016s, 027.7C,00002195
2015-05-17 01:04:01 r, 15.41m,0000000060Hz,0000007608c,0000000.017s, 027.3C,00002195
2015-05-17 01:14:01 r, 15.30m,0000000067Hz,0000006849c,0000000.015s, 027.3C,00002195
2015-05-17 01:24:01 r, 15.28m,0000000068Hz,0000006741c,0000000.015s, 027.3C,00002195
2015-05-17 01:34:01 r, 15.29m,0000000067Hz,0000006833c,0000000.015s, 027.0C,00002195
2015-05-17 01:44:01 r, 15.41m,0000000060Hz,0000007587c,0000000.016s, 027.3C,00002195
2015-05-17 01:54:01 r, 15.51m,0000000055Hz,0000008374c,0000000.018s, 027.0C,00002195
2015-05-17 02:04:01 r, 15.41m,0000000060Hz,0000007590c,0000000.016s, 027.0C,00002195
2015-05-17 02:14:01 r, 15.77m,0000000043Hz,0000010650c,0000000.023s, 027.0C,00002195
2015-05-17 02:24:01 r, 15.59m,0000000051Hz,0000009010c,0000000.020s, 027.0C,00002195
2015-05-17 02:34:01 r, 15.46m,0000000056Hz,0000007961c,0000000.017s, 027.0C,00002195
2015-05-17 02:44:01 r, 15.40m,0000000061Hz,0000007507c,0000000.016s, 027.0C,00002195
2015-05-17 02:54:01 r, 15.12m,0000000079Hz,0000005795c,0000000.013s, 027.0C,00002195
2015-05-17 03:04:01 r, 15.24m,0000000071Hz,0000006504c,0000000.014s, 027.0C,00002195
2015-05-17 03:14:01 r, 15.37m,0000000063Hz,0000007322c,0000000.016s, 027.0C,00002195
2015-05-17 03:24:01 r, 15.29m,0000000067Hz,0000006818c,0000000.015s, 027.0C,00002195
2015-05-17 03:34:01 r, 15.31m,0000000066Hz,0000006938c,0000000.015s, 027.0C,00002195
2015-05-17 03:44:01 r, 15.40m,0000000061Hz,0000007516c,0000000.016s, 027.0C,00002195
2015-05-17 03:54:01 r, 15.43m,0000000060Hz,0000007758c,0000000.017s, 027.0C,00002195
2015-05-17 04:04:01 r, 15.38m,0000000062Hz,0000007378c,0000000.016s, 027.0C,00002195
2015-05-17 04:14:01 r, 15.40m,0000000062Hz,0000007525c,0000000.016s, 027.0C,00002195
2015-05-17 04:24:01 r, 15.41m,0000000062Hz,0000007552c,0000000.016s, 027.0C,00002195
2015-05-17 04:34:01 r, 15.39m,0000000064Hz,0000007431c,0000000.016s, 027.0C,00002195
2015-05-17 04:44:01 r, 15.26m,0000000070Hz,0000006634c,0000000.014s, 027.0C,00002195
2015-05-17 04:54:01 r, 14.67m,0000000119Hz,0000003856c,0000000.008s, 026.7C,00002195
2015-05-17 05:04:01 r, 13.36m,0000000402Hz,0000000000c,0000000.000s, 026.7C,00002195
2015-05-17 05:14:01 r, 12.51m,0000000884Hz,0000000000c,0000000.000s, 026.7C,00002195
2015-05-17 05:24:01 r, 11.06m,0000003364Hz,0000000000c,0000000.000s, 026.4C,00002195
2015-05-17 05:34:01 r, 09.73m,0000011419Hz,0000000000c,0000000.000s, 026.4C,00002195
2015-05-17 05:44:01 r, 08.87m,0000025282Hz,0000000000c,0000000.000s, 026.4C,00002195
2015-05-17 05:54:01 r, 08.16m,0000048380Hz,0000000000c,0000000.000s, 026.4C,00002195
2015-05-17 06:04:01 r, 07.58m,0000082489Hz,0000000000c,0000000.000s, 026.1C,00002195
2015-05-17 06:14:01 r, 06.98m,0000144180Hz,0000000000c,0000000.000s, 026.1C,00002195
2015-05-17 06:24:01 r, 06.46m,0000232536Hz,0000000000c,0000000.000s, 026.1C,00002195
2015-05-17 06:34:01 r, 05.93m,0000376980Hz,0000000000c,0000000.000s, 025.7C,00002195
2015-05-17 06:44:01 r, 05.93m,0000376865Hz,0000000000c,0000000.000s, 025.4C,00002195
2015-05-17 06:54:01 r, 00.00m,0000565845Hz,0000000000c,0000000.000s, 025.4C,00002195
2015-05-17 07:04:01 r, 00.00m,0000563802Hz,0000000000c,0000000.000s, 025.1C,00002195
2015-05-17 07:14:01 r, 00.00m,0000563755Hz,0000000000c,0000000.000s, 024.8C,00002195
2015-05-17 07:24:01 r, 00.00m,0000563777Hz,0000000000c,0000000.000s, 024.8C,00002195
2015-05-17 07:34:01 r, 00.00m,0000504379Hz,0000000000c,0000000.000s, 024.4C,00002195
2015-05-17 07:44:01 r, 00.00m,0000563745Hz,0000000000c,0000000.000s, 024.4C,00002195
2015-05-17 07:54:01 r, 00.00m,0000563809Hz,0000000000c,0000000.000s, 024.4C,00002195
2015-05-17 08:04:01 r, 00.00m,0000563775Hz,0000000000c,0000000.000s, 024.4C,00002195
2015-05-17 08:14:01 r, 00.00m,0000563785Hz,0000000000c,0000000.000s, 024.1C,00002195
2015-05-17 08:24:01 r, 00.00m,0000563795Hz,0000000000c,0000000.000s, 024.1C,00002195
2015-05-17 08:34:01 r, 00.00m,0000563840Hz,0000000000c,0000000.000s, 024.1C,00002195
2015-05-17 08:44:01 r, 00.00m,0000563856Hz,0000000000c,0000000.000s, 024.1C,00002195
2015-05-17 08:54:01 r, 00.00m,0000563737Hz,0000000000c,0000000.000s, 023.8C,00002195
2015-05-17 09:04:01 r, 00.00m,0000563795Hz,0000000000c,0000000.000s, 023.8C,00002195
2015-05-17 09:14:01 r, 00.00m,0000563781Hz,0000000000c,0000000.000s, 023.8C,00002195
2015-05-17 09:24:01 r, 00.00m,0000563744Hz,0000000000c,0000000.000s, 023.5C,00002195
2015-05-17 09:34:01 r, 00.00m,0000563698Hz,0000000000c,0000000.000s, 023.5C,00002195
2015-05-17 09:44:01 r, 00.00m,0000563645Hz,0000000000c,0000000.000s, 023.2C,00002195
2015-05-17 09:54:01 r, 00.00m,0000563706Hz,0000000000c,0000000.000s, 023.2C,00002195
2015-05-17 10:04:01 r, 00.00m,0000563669Hz,0000000000c,0000000.000s, 023.2C,00002195
2015-05-17 10:14:01 r, 00.00m,0000563796Hz,0000000000c,0000000.000s, 023.2C,00002195
2015-05-17 10:24:01 r, 00.00m,0000563730Hz,0000000000c,0000000.000s, 023.2C,00002195
2015-05-17 10:34:01 r, 00.00m,0000563716Hz,0000000000c,0000000.000s, 023.2C,00002195
2015-05-17 10:44:01 r, 00.00m,0000563697Hz,0000000000c,0000000.000s, 023.2C,00002195
2015-05-17 10:54:01 r, 00.00m,0000563742Hz,0000000000c,0000000.000s, 022.8C,00002195
2015-05-17 11:04:01 r, 00.00m,0000563730Hz,0000000000c,0000000.000s, 022.8C,00002195
2015-05-17 11:14:01 r, 00.00m,0000563731Hz,0000000000c,0000000.000s, 022.8C,00002195
2015-05-17 11:24:01 r, 00.00m,0000563714Hz,0000000000c,0000000.000s, 022.5C,00002195
2015-05-17 11:34:01 r, 00.00m,0000563760Hz,0000000000c,0000000.000s, 022.5C,00002195
2015-05-17 11:44:01 r, 00.00m,0000563619Hz,0000000000c,0000000.000s, 022.5C,00002195
2015-05-17 11:54:01 r, 00.00m,0000563623Hz,0000000000c,0000000.000s, 022.5C,00002195
2015-05-17 12:04:01 r, 00.00m,0000563558Hz,0000000000c,0000000.000s, 022.5C,00002195
2015-05-17 12:14:01 r, 00.00m,0000563545Hz,0000000000c,0000000.000s, 022.2C,00002195
2015-05-17 12:24:01 r, 00.00m,0000563512Hz,0000000000c,0000000.000s, 021.9C,00002195
2015-05-17 12:34:01 r, 00.00m,0000563490Hz,0000000000c,0000000.000s, 021.5C,00002195
2015-05-17 12:44:01 r, 00.00m,0000563448Hz,0000000000c,0000000.000s, 021.5C,00002195
2015-05-17 12:54:01 r, 00.00m,0000563415Hz,0000000000c,0000000.000s, 021.5C,00002195
2015-05-17 13:04:01 r, 00.00m,0000563548Hz,0000000000c,0000000.000s, 021.9C,00002195
2015-05-17 13:14:01 r, 00.00m,0000563550Hz,0000000000c,0000000.000s, 021.9C,00002195
2015-05-17 13:24:01 r, 00.00m,0000563544Hz,0000000000c,0000000.000s, 021.5C,00002195
2015-05-17 13:34:01 r, 00.00m,0000563552Hz,0000000000c,0000000.000s, 021.9C,00002195
2015-05-17 13:44:01 r, 00.00m,0000563519Hz,0000000000c,0000000.000s, 021.5C,00002195
2015-05-17 13:54:01 r, 00.00m,0000563513Hz,0000000000c,0000000.000s, 021.5C,00002195
2015-05-17 14:04:01 r, 00.00m,0000563491Hz,0000000000c,0000000.000s, 021.5C,00002195
2015-05-17 14:14:01 r, 00.00m,0000563545Hz,0000000000c,0000000.000s, 021.5C,00002195
2015-05-17 14:24:01 r, 00.00m,0000563453Hz,0000000000c,0000000.000s, 021.2C,00002195
2015-05-17 14:34:01 r, 00.00m,0000563483Hz,0000000000c,0000000.000s, 021.2C,00002195
2015-05-17 14:44:01 r, 00.00m,0000563456Hz,0000000000c,0000000.000s, 021.2C,00002195
2015-05-17 14:54:01 r, 00.00m,0000563393Hz,0000000000c,0000000.000s, 020.6C,00002195
2015-05-17 15:04:01 r, 00.00m,0000563412Hz,0000000000c,0000000.000s, 020.6C,00002195
2015-05-17 15:14:01 r, 00.00m,0000563428Hz,0000000000c,0000000.000s, 020.3C,00002195
2015-05-17 15:24:01 r, 00.00m,0000563445Hz,0000000000c,0000000.000s, 020.3C,00002195
2015-05-17 15:34:01 r, 00.00m,0000563355Hz,0000000000c,0000000.000s, 020.3C,00002195
2015-05-17 15:44:01 r, 00.00m,0000563418Hz,0000000000c,0000000.000s, 020.3C,00002195
2015-05-17 15:54:01 r, 00.00m,0000563407Hz,0000000000c,0000000.000s, 020.6C,00002195
2015-05-17 16:04:01 r, 00.00m,0000563475Hz,0000000000c,0000000.000s, 020.6C,00002195
2015-05-17 16:14:01 r, 00.00m,0000563420Hz,0000000000c,0000000.000s, 020.6C,00002195
2015-05-17 16:24:01 r, 00.00m,0000563446Hz,0000000000c,0000000.000s, 020.6C,00002195
2015-05-17 16:34:01 r, 00.00m,0000563499Hz,0000000000c,0000000.000s, 020.9C,00002195
2015-05-17 16:44:01 r, 00.00m,0000563614Hz,0000000000c,0000000.000s, 021.2C,00002195
2015-05-17 16:54:01 r, 00.00m,0000563548Hz,0000000000c,0000000.000s, 021.5C,00002195
2015-05-17 17:04:01 r, 00.00m,0000563618Hz,0000000000c,0000000.000s, 021.5C,00002195
2015-05-17 17:14:01 r, 00.00m,0000563670Hz,0000000000c,0000000.000s, 021.9C,00002195
2015-05-17 17:24:01 r, 00.00m,0000563515Hz,0000000000c,0000000.000s, 021.5C,00002195
2015-05-17 17:34:01 r, 00.00m,0000563448Hz,0000000000c,0000000.000s, 020.9C,00002195
2015-05-17 17:44:01 r, 00.00m,0000563433Hz,0000000000c,0000000.000s, 020.6C,00002195
2015-05-17 17:54:01 r, 00.00m,0000563485Hz,0000000000c,0000000.000s, 020.6C,00002195
2015-05-17 18:04:01 r, 00.00m,0000563395Hz,0000000000c,0000000.000s, 020.3C,00002195
2015-05-17 18:14:01 r, 00.00m,0000563378Hz,0000000000c,0000000.000s, 020.6C,00002195
2015-05-17 18:24:01 r, 00.00m,0000563467Hz,0000000000c,0000000.000s, 020.6C,00002195
2015-05-17 18:34:01 r, 00.00m,0000563456Hz,0000000000c,0000000.000s, 020.3C,00002195
2015-05-17 18:44:01 r, 00.00m,0000563392Hz,0000000000c,0000000.000s, 020.3C,00002195
2015-05-17 18:54:01 r, 00.00m,0000563329Hz,0000000000c,0000000.000s, 020.3C,00002195
2015-05-17 19:04:01 r, 00.00m,0000563348Hz,0000000000c,0000000.000s, 019.9C,00002195
2015-05-17 19:14:01 r, 00.00m,0000563360Hz,0000000000c,0000000.000s, 019.9C,00002195
2015-05-17 19:24:01 r, 00.00m,0000563285Hz,0000000000c,0000000.000s, 019.6C,00002195
2015-05-17 19:34:01 r, 00.00m,0000563333Hz,0000000000c,0000000.000s, 019.6C,00002195
2015-05-17 19:44:01 r, 00.00m,0000555115Hz,0000000000c,0000000.000s, 019.3C,00002195
2015-05-17 19:54:01 r, 00.00m,0000469138Hz,0000000000c,0000000.000s, 019.0C,00002195
2015-05-17 20:04:01 r, 06.05m,0000338437Hz,0000000000c,0000000.000s, 018.6C,00002195
2015-05-17 20:14:01 r, 05.87m,0000399473Hz,0000000000c,0000000.000s, 018.3C,00002195
2015-05-17 20:24:01 r, 06.01m,0000352252Hz,0000000000c,0000000.000s, 018.0C,00002195
2015-05-17 20:34:01 r, 06.54m,0000216902Hz,0000000000c,0000000.000s, 018.0C,00002195
2015-05-17 20:44:01 r, 06.66m,0000193109Hz,0000000000c,0000000.000s, 018.0C,00002195
2015-05-17 20:54:01 r, 07.19m,0000118191Hz,0000000000c,0000000.000s, 017.7C,00002195
2015-05-17 21:04:01 r, 08.02m,0000055257Hz,0000000000c,0000000.000s, 017.7C,00002195
2015-05-17 21:14:01 r, 08.78m,0000027357Hz,0000000000c,0000000.000s, 017.4C,00002195
2015-05-17 21:24:01 r, 10.14m,0000007863Hz,0000000000c,0000000.000s, 017.4C,00002195
2015-05-17 21:34:01 r, 11.27m,0000002780Hz,0000000000c,0000000.000s, 017.0C,00002195
2015-05-17 21:44:01 r, 12.77m,0000000695Hz,0000000000c,0000000.000s, 017.0C,00002195
2015-05-17 21:54:01 r, 14.02m,0000000219Hz,0000000000c,0000000.000s, 016.7C,00002195
2015-05-17 22:04:01 r, 15.02m,0000000087Hz,0000005314c,0000000.012s, 016.7C,00002195
2015-05-17 22:14:01 r, 15.29m,0000000069Hz,0000006812c,0000000.015s, 016.7C,00002195
2015-05-17 22:24:01 r, 15.45m,0000000058Hz,0000007884c,0000000.017s, 016.7C,00002195
2015-05-17 22:34:01 r, 15.34m,0000000063Hz,0000007118c,0000000.015s, 016.7C,00002195
2015-05-17 22:44:01 r, 15.53m,0000000053Hz,0000008564c,0000000.019s, 016.7C,00002195
2015-05-17 22:54:01 r, 15.60m,0000000051Hz,0000009081c,0000000.020s, 016.7C,00002195
2015-05-17 23:04:01 r, 15.42m,0000000059Hz,0000007643c,0000000.017s, 016.7C,00002195
2015-05-17 23:14:01 r, 15.44m,0000000057Hz,0000007789c,0000000.017s, 016.7C,00002195
2015-05-17 23:24:01 r, 15.61m,0000000048Hz,0000009188c,0000000.020s, 016.7C,00002195
2015-05-17 23:34:01 r, 15.42m,0000000062Hz,0000007643c,0000000.017s, 016.7C,00002195
2015-05-17 23:44:01 r, 15.69m,0000000047Hz,0000009820c,0000000.021s, 016.7C,00002195
2015-05-17 23:54:01 r, 15.43m,0000000060Hz,0000007751c,0000000.017s, 016.7C,00002195
